TimeCST,TemperatureF,Dew PointF,Humidity,Sea Level PressureIn,VisibilityMPH,Wind Direction,Wind SpeedMPH,Gust SpeedMPH,PrecipitationIn,Events,Conditions,WindDirDegrees,DateUTC
12:15 AM,56.7,56.7,100,30.02,7.0,Calm,Calm,-,N/A,,Clear,0,2013-11-16 06:15:00
12:35 AM,56.5,56.5,100,30.02,10.0,ENE,3.5,-,N/A,,Clear,70,2013-11-16 06:35:00
12:55 AM,56.3,56.3,100,30.02,10.0,East,3.5,-,N/A,,Clear,80,2013-11-16 06:55:00
1:15 AM,55.9,55.9,100,30.02,7.0,East,3.5,-,N/A,,Clear,90,2013-11-16 07:15:00
1:35 AM,55.9,55.9,100,30.02,7.0,Calm,Calm,-,N/A,,Clear,0,2013-11-16 07:35:00
1:55 AM,55.8,55.8,100,30.02,7.0,Calm,Calm,-,N/A,,Clear,0,2013-11-16 07:55:00
2:15 AM,55.9,55.9,100,30.01,7.0,Calm,Calm,-,N/A,,Clear,0,2013-11-16 08:15:00
2:35 AM,55.9,55.9,100,30.00,7.0,ESE,5.8,-,N/A,,Clear,110,2013-11-16 08:35:00
2:55 AM,56.3,56.3,100,30.00,7.0,ESE,5.8,-,N/A,,Clear,110,2013-11-16 08:55:00
3:15 AM,56.3,56.3,100,29.99,7.0,ESE,5.8,-,N/A,,Clear,110,2013-11-16 09:15:00
3:35 AM,56.3,56.3,100,30.00,7.0,East,4.6,-,N/A,,Clear,100,2013-11-16 09:35:00
3:55 AM,55.9,55.9,100,30.00,5.0,Calm,Calm,-,N/A,,Clear,0,2013-11-16 09:55:00
4:15 AM,56.1,56.1,100,30.00,5.0,East,3.5,-,N/A,,Clear,100,2013-11-16 10:15:00
4:35 AM,55.4,55.4,100,29.99,4.0,Calm,Calm,-,N/A,,Clear,0,2013-11-16 10:35:00
4:55 AM,55.6,55.6,100,29.99,4.0,Calm,Calm,-,N/A,,Clear,0,2013-11-16 10:55:00
5:15 AM,54.9,54.9,100,30.00,4.0,Calm,Calm,-,N/A,,Clear,0,2013-11-16 11:15:00
5:35 AM,55.4,55.4,100,30.00,2.0,Calm,Calm,-,N/A,,Mist,0,2013-11-16 11:35:00
5:55 AM,54.1,54.1,100,30.01,2.0,Calm,Calm,-,N/A,,Overcast,0,2013-11-16 11:55:00
6:15 AM,54.9,54.9,100,30.01,4.0,East,4.6,-,N/A,,Mostly Cloudy,100,2013-11-16 12:15:00
6:35 AM,55.4,55.4,100,30.02,2.5,Calm,Calm,-,N/A,,Mist,0,2013-11-16 12:35:00
6:55 AM,55.6,55.6,100,30.02,3.0,ESE,4.6,-,N/A,,Mist,110,2013-11-16 12:55:00
7:15 AM,57.2,57.2,100,30.03,5.0,ESE,4.6,-,N/A,,Mostly Cloudy,110,2013-11-16 13:15:00
7:35 AM,58.3,58.3,100,30.03,5.0,ESE,5.8,-,N/A,,Overcast,110,2013-11-16 13:35:00
7:55 AM,59.5,59.5,100,30.03,5.0,East,4.6,-,N/A,,Overcast,100,2013-11-16 13:55:00
8:15 AM,60.1,60.1,100,30.04,10.0,ESE,3.5,-,N/A,,Overcast,110,2013-11-16 14:15:00
8:35 AM,61.3,61.3,100,30.04,10.0,SE,5.8,-,N/A,,Mostly Cloudy,140,2013-11-16 14:35:00
8:55 AM,63.1,63.1,100,30.05,10.0,ESE,5.8,-,N/A,,Mostly Cloudy,110,2013-11-16 14:55:00
9:15 AM,70.2,69.1,96,30.06,10.0,ESE,3.5,-,N/A,,Scattered Clouds,110,2013-11-16 15:15:00
9:35 AM,75.4,72.1,90,30.06,10.0,SE,6.9,-,N/A,,Mostly Cloudy,140,2013-11-16 15:35:00
9:55 AM,76.8,72.9,88,30.06,10.0,SE,6.9,-,N/A,,Scattered Clouds,130,2013-11-16 15:55:00
10:15 AM,76.1,73.2,91,30.05,10.0,SE,6.9,-,N/A,,Mostly Cloudy,140,2013-11-16 16:15:00
10:35 AM,77.9,73.4,86,30.04,10.0,SSE,9.2,-,N/A,,Mostly Cloudy,150,2013-11-16 16:35:00
10:55 AM,78.1,72.1,82,30.04,10.0,SE,6.9,-,N/A,,Overcast,130,2013-11-16 16:55:00
11:15 AM,78.3,71.1,78,30.04,10.0,SE,9.2,-,N/A,,Overcast,140,2013-11-16 17:15:00
11:35 AM,77.9,70.9,79,30.02,10.0,SE,8.1,-,N/A,,Overcast,140,2013-11-16 17:35:00
11:55 AM,78.1,70.7,78,30.02,10.0,SE,10.4,-,N/A,,Overcast,130,2013-11-16 17:55:00
12:15 PM,79.5,71.1,75,30.01,10.0,SSE,10.4,-,N/A,,Mostly Cloudy,150,2013-11-16 18:15:00
12:35 PM,79.5,70.9,75,29.99,10.0,SE,8.1,-,N/A,,Clear,130,2013-11-16 18:35:00
12:55 PM,78.6,70.9,77,29.99,10.0,SE,9.2,-,N/A,,Scattered Clouds,130,2013-11-16 18:55:00
1:15 PM,78.4,70.7,77,29.98,10.0,SE,10.4,-,N/A,,Scattered Clouds,130,2013-11-16 19:15:00
1:35 PM,77.4,70.3,79,29.98,10.0,SE,9.2,-,N/A,,Mostly Cloudy,130,2013-11-16 19:35:00
1:55 PM,78.8,70.9,77,29.97,10.0,SE,8.1,-,N/A,,Overcast,130,2013-11-16 19:55:00
2:15 PM,77.2,70.9,81,29.97,10.0,ESE,10.4,-,N/A,,Overcast,120,2013-11-16 20:15:00
2:35 PM,76.5,70.7,82,29.97,10.0,SE,8.1,-,N/A,,Overcast,140,2013-11-16 20:35:00
2:55 PM,76.6,70.9,82,29.96,10.0,SE,4.6,-,N/A,,Overcast,140,2013-11-16 20:55:00
3:15 PM,76.8,70.9,82,29.96,10.0,SE,5.8,-,N/A,,Overcast,140,2013-11-16 21:15:00
3:35 PM,77.2,70.9,81,29.96,10.0,SSE,9.2,-,N/A,,Mostly Cloudy,150,2013-11-16 21:35:00
3:55 PM,76.8,70.7,81,29.96,10.0,SE,8.1,-,N/A,,Mostly Cloudy,140,2013-11-16 21:55:00
4:15 PM,76.1,70.3,82,29.96,10.0,SE,5.8,-,N/A,,Scattered Clouds,140,2013-11-16 22:15:00
4:35 PM,75.0,70.0,84,29.97,10.0,SE,6.9,-,N/A,,Scattered Clouds,130,2013-11-16 22:35:00
4:55 PM,73.8,69.8,87,29.97,10.0,SE,4.6,-,N/A,,Scattered Clouds,140,2013-11-16 22:55:00
5:15 PM,72.5,69.8,91,29.97,10.0,SE,5.8,-,N/A,,Clear,140,2013-11-16 23:15:00
5:35 PM,72.1,70.0,93,29.97,10.0,SE,5.8,-,N/A,,Scattered Clouds,130,2013-11-16 23:35:00
5:55 PM,71.6,69.8,94,29.98,10.0,ESE,5.8,-,N/A,,Scattered Clouds,120,2013-11-16 23:55:00
6:15 PM,71.2,70.2,96,29.98,10.0,SE,5.8,-,N/A,,Mostly Cloudy,130,2013-11-17 00:15:00
6:35 PM,70.7,70.2,98,29.98,10.0,ESE,5.8,-,N/A,,Mostly Cloudy,120,2013-11-17 00:35:00
6:55 PM,69.8,69.8,100,29.98,10.0,SE,6.9,-,N/A,,Scattered Clouds,130,2013-11-17 00:55:00
7:15 PM,68.5,68.5,100,29.97,10.0,SE,6.9,-,N/A,,Clear,130,2013-11-17 01:15:00
7:35 PM,68.4,68.4,100,29.98,10.0,SE,6.9,-,N/A,,Scattered Clouds,130,2013-11-17 01:35:00
7:55 PM,68.5,68.5,100,29.99,10.0,SE,5.8,-,N/A,,Overcast,140,2013-11-17 01:55:00
8:15 PM,68.9,68.9,100,29.99,10.0,SE,5.8,-,N/A,,Overcast,140,2013-11-17 02:15:00
8:35 PM,68.2,68.2,100,30.00,4.0,SSE,4.6,-,N/A,Rain,Rain,150,2013-11-17 02:35:00
8:55 PM,68.0,68.0,100,29.99,10.0,SSE,3.5,-,N/A,,Overcast,150,2013-11-17 02:55:00
9:15 PM,67.6,67.6,100,29.99,7.0,SSE,3.5,-,N/A,,Overcast,150,2013-11-17 03:15:00
9:35 PM,67.5,67.5,100,29.99,3.0,SSE,5.8,-,N/A,,Overcast,160,2013-11-17 03:35:00
9:55 PM,67.5,67.5,100,29.99,5.0,SSE,9.2,-,N/A,,Overcast,150,2013-11-17 03:55:00
10:15 PM,67.5,67.5,100,29.98,2.5,SSE,9.2,-,N/A,Rain,Light Rain,150,2013-11-17 04:15:00
10:35 PM,67.1,67.1,100,29.97,3.0,SE,8.1,-,N/A,,Overcast,140,2013-11-17 04:35:00
10:55 PM,67.1,67.1,100,29.98,2.5,SSE,9.2,-,N/A,Rain,Rain,160,2013-11-17 04:55:00
11:15 PM,66.7,66.7,100,29.98,5.0,SSE,8.1,-,N/A,,Overcast,150,2013-11-17 05:15:00
11:35 PM,66.7,66.7,100,29.97,5.0,SSE,4.6,-,N/A,,Overcast,160,2013-11-17 05:35:00
11:55 PM,66.4,66.4,100,29.96,5.0,SSE,5.8,-,N/A,,Overcast,160,2013-11-17 05:55:00